[Iaude] MPEC C100: 2024 CS1 [a=1.67,e=0.31,i=7.6,H=22.6]

mpec at cfa.harvard.edu mpec at cfa.harvard.edu
Fri Feb 9 09:18:38 EST 2024


M.P.E.C. 2024-C100                             Issued 2024 February 9, 14:16 UT

     The Minor Planet Electronic Circulars contain information on unusual
         minor planets, routine data on comets and natural satellites,
         and occasional editorial announcements.  They are published
    on behalf of Division F of the International Astronomical Union by the
          Minor Planet Center, Smithsonian Astrophysical Observatory,
                          Cambridge, MA 02138, U.S.A.
			  
             Prepared using the Tamkin Foundation Computer Network

                              MPC at CFA.HARVARD.EDU
            URL https://www.minorplanetcenter.net/    ISSN 1523-6714

                                    2024 CS1                                    


Observations:
     K24C01S* C2024 02 04.47770110 22 44.150+00 54 19.15         21.22wXEC100F52
     K24C01S  C2024 02 04.48963110 22 44.978+00 54 29.91         21.09wXEC100F52
     K24C01S  C2024 02 04.50159310 22 45.809+00 54 40.61         20.93wXEC100F52
     K24C01S  C2024 02 04.51360410 22 46.641+00 54 51.29         21.12wXEC100F52
     K24C01S KC2024 02 05.28589210 23 51.871+01 06 36.25         20.93GVEC100I52
     K24C01S KC2024 02 05.29102110 23 52.220+01 06 41.22         20.89GVEC100I52
     K24C01S KC2024 02 05.29617010 23 52.598+01 06 45.94         20.42GVEC100I52
     K24C01S KC2024 02 05.30130910 23 52.958+01 06 50.33         20.77GVEC100I52
     K24C01S  C2024 02 05.46438310 24 06.124+01 09 32.20         20.72GVEC100F52
     K24C01S  C2024 02 05.46520110 24 06.187+01 09 32.93         21.03GVEC100F52
     K24C01S KC2024 02 09.57195410 29 52.951+02 24 56.92         20.6 GVEC100474
     K24C01S KC2024 02 09.57916810 29 53.513+02 25 05.63         20.8 GVEC100474
     K24C01S KC2024 02 09.58268810 29 53.760+02 25 10.20         20.6 GVEC100474

Observer details:
474 Mount John Observatory, Lake Tekapo.  Observers A. C. Gilmore, P. M.
    Kilmartin.  Measurer P. M. Kilmartin.  1.0-m f/7.7 Reflector + CCD.
F52 Pan-STARRS 2, Haleakala.  Observers J. Herman, T. Lowe, P. Minguez, A.
    Schultz, I. Smith.  Measurers K. Chambers, T. de Boer, J. Fairlamb, H.
    Gao, M. Huber, C.-C. Lin, E. Magnier, Y. Ramanjooloo, R. Wainscoat, R.
    Weryk.  1.8-m Ritchey-Chretien + CCD.
I52 Steward Observatory, Mt. Lemmon Station.  Observer H. Groeller.  Measurers
    E. C. Beshore, D. Fay, J. B. Fazekas, D. C. Fuls, A. R. Gibbs, A. D.
    Grauer, H. Groeller, J. K. Hogan, R. A. Kowalski, S. M. Larson, G. J.
    Leonard, D. Rankin, R. L. Seaman, F. C. Shelly, K. W. Wierzchos.  1.0-m
    prime focus + CCD.

Orbital elements:
2024 CS1                                                 Earth MOID = 0.1665 AU
Epoch 2023 Sept. 13.0 TT = JDT 2460200.5                MPC                     
M 271.81874              (2000.0)            P               Q                  
n   0.45674194     Peri.   28.50473     -0.99769892     +0.03271103             
a   1.6698936      Node   153.17212     -0.04842975     -0.95683057             
e   0.3099810      Incl.    7.56138     +0.04744918     -0.28879967             
P   2.16           H   22.66          G   0.15           U   8                  
Residuals in seconds of arc
240204 F52  0.0   0.1-    240205 I52  0.0   0.3+    240209 474  0.1-  0.0
240204 F52  0.0   0.0     240205 I52  0.1+  0.1+    240209 474  0.2+  0.1-
240204 F52  0.0   0.0     240205 I52  0.1-  0.4-    240209 474  0.1-  0.1+
240204 F52  0.0   0.1-    240205 F52  0.1-  0.0
240205 I52  0.3+  0.2+    240205 F52  0.0   0.0

Ephemeris:
2024 CS1                 a,e,i = 1.67, 0.31, 8                   q = 1.1523
Date    TT    R. A. (2000) Decl.     Delta      r    Elong.  Phase     V
2024 01 10    09 48 20.5 -00 52 48   0.4100  1.3153   137.5    30.3    22.6
...
2024 01 25    10 08 35.2 -00 48 36   0.3140  1.2613   147.8    24.6    21.8
...
2024 02 02    10 19 20.4 +00 20 45   0.2719  1.2357   154.1    20.4    21.3
...
2024 02 08    10 27 38.6 +01 53 39   0.2448  1.2182   159.2    16.7    20.9
2024 02 09    10 29 03.7 +02 12 57   0.2406  1.2155   160.1    16.0    20.9
2024 02 10    10 30 29.7 +02 33 22   0.2366  1.2128   161.0    15.4    20.8
...
2024 02 16    10 39 28.2 +04 59 51   0.2148  1.1977   166.6    11.1    20.4
...
2024 02 24    10 52 50.5 +09 16 10   0.1923  1.1806   173.3     5.7    19.9
...
2024 03 10    11 23 31.0 +19 12 03   0.1708  1.1589   164.9    12.9    19.9

A. U. Tomatic                (C) Copyright 2024 MPC           M.P.E.C. 2024-C100





More information about the Iaude mailing list